Terug naar catalogus

STARLINK-4743

ActiefCommunicatieVLEO
NORAD 53787·PAYLOAD·🇺🇸 United States

Gelanceerd Sep 11, 2022 vanaf Cape Canaveral Space Force Station

Loading…

Volgende Passages (komende 24 uur)

TLE

VersSource: CelesTrak SupGP

Epoch: Sep 15, 2026, 02:03 UTC

1 53787C 22111Q   26258.08590278  .00052818  00000+0  16985-2 0  2581
2 53787  53.1567 131.4836 0001205  84.8980  21.7925 15.31674441    13

Volg STARLINK-4743 in realtime met AllMySat

Download on the App Store